Regional Weather Roundup
Issued by NWS

Home | Current Version | Previous Version | Graphics & Text | Print | Product List | Glossary On
Versions: 1 2 3 4 5 6 7 8 9 10 11 12 13 14 15 16 17 18 19 20 21 22 23 24 25 26 27 28 29 30 31 32 33 34 35 36 37 38 39 40 41
000
ASUS45 KBOI 011810
RWRID
WEATHER ROUNDUP FOR IDAHO
NATIONAL WEATHER SERVICE BOISE ID
1200 PM MDT WED OCT 01 2014

NOTE: "FAIR" INDICATES FEW OR NO CLOUDS BELOW 12000 FEET
WITH NO SIGNIFICANT WEATHER AND/OR OBSTRUCTIONS TO VISIBILITY

IDZ012-014-011900-
SOUTHWEST IDAHO


CITY           SKY/WX    TMP DP  RH WIND       PRES   REMARKS
BOISE          SUNNY     55  39  54 NW12      30.17S
CALDWELL       SUNNY     55  36  47 NW10      30.21S
MOUNTAIN HOME  SUNNY     57  38  48 NW21      30.16R
$$

IDZ016-017-011900-
SOUTHCENTRAL IDAHO


CITY           SKY/WX    TMP DP  RH WIND       PRES   REMARKS
BURLEY         MOSUNNY   51  39  63 W14       30.14R
JEROME         SUNNY     50  39  66 SW13      30.15R
TWIN FALLS     MOSUNNY   53  39  59 W18       30.15R
$$

IDZ019>023-011900-
SOUTHEAST IDAHO


CITY           SKY/WX    TMP DP  RH WIND       PRES   REMARKS
IDAHO FALLS    PTSUNNY   50  35  56 S5        30.10R
POCATELLO      MOSUNNY   52  40  63 SW18      30.13S
REXBURG        PTSUNNY   49  32  52 W7        30.08S
$$

IDZ006-010-011-018-031-032-011900-
CENTRAL IDAHO MOUNTAINS


CITY           SKY/WX    TMP DP  RH WIND       PRES   REMARKS
MCCALL         PTSUNNY   49  32  52 CALM      30.15F
HAILEY         MOSUNNY   50  34  53 SE10      30.13R
STANLEY          N/A     46  27  47 VRB7      30.16S
SALMON         CLOUDY    50  34  53 N5        30.12S
CHALLIS        CLOUDY    48  31  51 VRB3      30.14R
$$

IDZ002-004-006-007-026-011900-
NORTHERN IDAHO


CITY           SKY/WX    TMP DP  RH WIND       PRES   REMARKS
LEWISTON       SUNNY     59  43  55 VRB5      30.16S
LOWELL           N/A     53  46  77 CALM      30.19F
COEUR D`ALENE  SUNNY     52  41  66 S10       30.12F
MULLAN PASS    FOG       34  34 100 VRB3      30.10S VSB 1/2
$$


USA.gov is the U.S. government's official web portal to all federal, state and local government web resources and services.